Regional Weather Roundup
Issued by NWS

Home | Current Version | Previous Version | Text Only | Print | Product List | Glossary On
Versions: 1 2 3 4 5 6 7 8 9 10 11 12 13 14 15 16 17 18 19 20 21 22 23 24 25 26 27 28 29 30 31 32 33 34 35 36 37 38 39 40 41 42 43 44 45 46 47 48 49 50
000
ASUS42 KTBW 281915
RWRFL
FLORIDA REGIONAL WEATHER ROUNDUP
NATIONAL WEATHER SERVICE TAMPA BAY RUSKIN FL
300 PM EDT SAT MAR 28 2015

NOTE: "FAIR" INDICATES FEW OR NO CLOUDS BELOW 12,000 FEET WITH NO
SIGNIFICANT WEATHER AND/OR OBSTRUCTIONS TO VISIBILITY.


FLZ001>010-012>015-112-114-115-282000-
PANHANDLE FLORIDA

CITY           SKY/WX    TMP DP  RH WIND       PRES   REMARKS
PENSACOLA      SUNNY     62  31  31 N10G18    30.21F
PENSACOLA NAS  MOSUNNY   63  33  32 N9        30.21F
MILTON NAS     SUNNY     60  29  30 NW9       30.20
CRESTVIEW      SUNNY     62  26  25 NW15G24   30.21F
DUKE FIELD     MOSUNNY   62  25  25 NW13G20   30.19F
VALPARAISO     MOSUNNY   64  26  24 N15       30.19F
MARY ESTHER    SUNNY     63  23  21 N14G22    30.19F
TRI COUNTY     FAIR      60  25  26 NW12G17   30.20F
PANAMA CITY    FAIR      63  27  25 NW14      30.17F
TYNDALL AFB    SUNNY     63  31  30 N10       30.18F
APALACHICOLA   SUNNY     69  27  20 NW14G21   30.17F

STATION/POSITION SKY/WX   TEMP    WIND        PRES    WAVE   SWELL
                          AIR SEA DIR/SP/G            HT/PER HT/PER
                          (F)     (DEG/KT/KT) (MB)    (FT/S) (FT/S)
30.1N   87.6W              55 67  260/  4/  6 1023.4F   1/ 6
29.2N   88.2W              57 72   80/  6/ 10 1024.1F   2/ 5   2/ 5
28.8N   86.0W              58 75  360/ 10/ 16 1023.5S   3/ 5   3/ 5
PANAMA CITY BEAC           58 63  330/  9/ 17 1022.7F
CAPE SAN BLAS    NOT AVBL
TOWER C                    55     280/ 12/ 15 1022.2F
28.5N   84.5W              58 68  310/ 14/ 17 1022.3F   4/ 6   2/ 7

$$
FLZ011-016>038-118-127-128-134-139-239-282000-
NORTH FLORIDA

CITY           SKY/WX    TMP DP  RH WIND       PRES   REMARKS
MARIANNA       SUNNY     61  25  25 NW14G22   30.18F
TALLAHASSEE    MOSUNNY   63  27  25 NW16G25   30.16F
PERRY          SUNNY     61  30  30 NW15G21   30.16S
CROSS CITY       N/A     65  32  29 SW6G22    30.13F
LAKE CITY      FAIR      61  32  33 W12G24    30.12F
GAINESVILLE    SUNNY     64  29  26 NW14G22   30.11F
MAYPORT NAS    SUNNY     61  32  33 W9G21     30.09F
JACKSONVILLE   MOSUNNY   62  33  33 W12G21    30.09F
JAX NAS        MOSUNNY   65  27  23 NW14G22   30.10F
JAX CRAIG      SUNNY     62  32  32 NW15G23   30.09F
JAX CECIL      SUNNY     63  32  31 NW16      30.11F
FERNANDINA BEA FAIR      66  32  28 W16G23    30.08F
ST AUGUSTINE   SUNNY     64  31  28 W14G21    30.10F

STATION/POSITION SKY/WX   TEMP    WIND        PRES    WAVE   SWELL
                          AIR SEA DIR/SP/G            HT/PER HT/PER
                          (F)     (DEG/KT/KT) (MB)    (FT/S) (FT/S)
SHELL POINT                59     300/ 11/ 19   N/A
KEATON BEACH               57     280/ 15/ 19 1021.3F
CEDAR KEY                  58     290/ 11/ 16 1021.7F
FERNANDINA                 56 63  260/ 15/ 19 1019.4
30.7N   81.3W                 61                N/A     3/ 3
MAYPORT                    58 66  290/ 16/ 19 1019.8
31.4N   80.9W              54 61  270/ 12/ 17 1018.8F   2/ 3   2/ 7
ST AUGUSTINE               63 61  290/ 13/ 19 1019.6F

$$
FLZ040-043>046-052-053-057-058-063-144-282000-
INTERIOR CENTRAL FLORIDA

CITY           SKY/WX    TMP DP  RH WIND       PRES   REMARKS
OCALA          SUNNY     64  30  27 NW12G21   30.12F
THE VILLAGES     N/A     66  32  28 W12       30.02F
LEESBURG       SUNNY     66  32  28 W14G20    30.14F
SANFORD        SUNNY     67  34  29 W13       30.12F
ORLANDO EXEC   SUNNY     65  34  31 W16G23    30.13F
ORLANDO INTL   PTSUNNY   68  34  28 W16       30.14F
KISSIMMEE      SUNNY     66  34  30 W16G23    30.14F
WINTER HAVEN   SUNNY     70  36  28 W18G25    30.15F
LAKELAND       MOSUNNY   66  39  37 NW23G31   30.15F
BARTOW         PTSUNNY   64  36  34 NW23G35   30.16F
OKEECHOBEE     PTSUNNY   68  43  40 W14G21    30.15F

$$
FLZ041-047-054-059-064-141-147-282000-
EAST CENTRAL FLORIDA

CITY           SKY/WX    TMP DP  RH WIND       PRES   REMARKS
ORMOND BEACH   SUNNY     64  32  29 NW17G24   30.10F
DAYTONA BEACH  PTSUNNY   66  33  29 W13G18    30.12F
DELAND           N/A    N/A N/A N/A W8G20     30.13F
NEW SMYRNA BEA SUNNY     66  32  28 W12G17    30.13F
JFK SPACE CTR  SUNNY     66  35  32 NW13G20   30.11F
TITUSVILLE     MOSUNNY   64  36  34 NW12G17   30.13F
CAPE CANAVERAL SUNNY     67  34  28 W13       30.11F
PATRICK AFB    SUNNY     69  31  24 W18       30.12
MELBOURNE      MOSUNNY   69  27  20 W17G33    30.12F
VERO BEACH     PTSUNNY   68  36  30 W12       30.13F
FT PIERCE      MOSUNNY   69  33  26 W16       30.13S
STUART         PTSUNNY   68  30  24 NW16G25   30.14F

STATION/POSITION SKY/WX   TEMP    WIND        PRES    WAVE   SWELL
                          AIR SEA DIR/SP/G            HT/PER HT/PER
                          (F)     (DEG/KT/KT) (MB)    (FT/S) (FT/S)
28.5N   80.2W              57 71  330/ 12/ 16 1020.6F
28.9N   78.5W              63 75  300/ 16/ 23 1018.8F
TRIDENT PIER               63 72  290/  8/ 13 1020.8
28.4N   80.5W                 72                N/A     2/ 9
27.5N   80.2W                 75                N/A     4/ 5   2/11

$$
FLZ050-056-061-142-242-148-248-149-249-151-251-155-255-
160-260-282000-
WEST CENTRAL FLORIDA

CITY           SKY/WX    TMP DP  RH WIND       PRES   REMARKS
CRYSTAL RIVER  FAIR      61  37  41 W16G23    30.15F
INVERNESS      FAIR     N/A N/A N/A SW6       30.14F
BROOKSVILLE    SUNNY     64  41  42 NW14      30.17F
ZEPHYRHILLS    FAIR      64  36  34 W15G21    30.16F
CLEARWATER     MOSUNNY   66  41  40 NW18      30.18F
TAMPA INTL     PTSUNNY   65  34  31 NW17      30.17F
TAMPA EXEC     SUNNY     68  41  37 NW10G21   30.17F
PLANT CITY     SUNNY     66  45  45 NW12G24   30.17F
MACDILL AFB    MOSUNNY   67  42  40 NW13G23   30.17F
PETER O KNIGHT MOSUNNY   68  37  32 NW10G22   30.17F
ST PETERSBURG  MOSUNNY   65  38  36 N20G26    30.15F
SARASOTA       SUNNY     68  41  37 NW16G30   30.16F
VENICE         FAIR      66  45  45 N16G22    30.18F

STATION/POSITION SKY/WX   TEMP    WIND        PRES    WAVE   SWELL
                          AIR SEA DIR/SP/G            HT/PER HT/PER
                          (F)     (DEG/KT/KT) (MB)    (FT/S) (FT/S)
CEDAR KEY                  58     290/ 11/ 16 1021.7F
28.5N   84.5W              58 68  310/ 14/ 17 1022.3F   4/ 6   2/ 7
27.3N   84.2W                 72                N/A     6/ 7
CLEARWATER BEACH           61 70  320/ 19/ 23 1022.5F
MIDDLE TAMPA BAY           64     350/ 18/ 24 1022.3
VENICE                     64 74  330/ 22/ 23 1021.4F

$$
FLZ066-069-070-075>078-162-262-165-265-282000-
SOUTHWEST FLORIDA AND KEYS

CITY           SKY/WX    TMP DP  RH WIND       PRES   REMARKS
PUNTA GORDA    SUNNY     70  42  36 NW20      30.17F
FT MYERS       MOSUNNY   71  45  39 NW15G22   30.15F
SOUTHWEST INTL PTSUNNY   71  46  40 NW10      30.16F
NAPLES         CLOUDY    71  50  47 N13G21    30.16F
MARCO ISLAND   CLEAR     70  46  43 NW13G21   30.16S
IMMOKALEE      CLEAR    N/A N/A N/A NW8       30.16S
MARATHON       CLOUDY    72  53  51 N8        30.15F
KEY WEST NAS   CLOUDY    70  55  59 N15G23    30.15F
KEY WEST INTL  PTSUNNY   71  58  63 N12G21    30.15F

STATION/POSITION SKY/WX   TEMP    WIND        PRES    WAVE   SWELL
                          AIR SEA DIR/SP/G            HT/PER HT/PER
                          (F)     (DEG/KT/KT) (MB)    (FT/S) (FT/S)
VENICE                     64 74  330/ 22/ 23 1021.4F
NAPLES                     66 76  330/ 18/ 21 1021.3
26.0N   85.6W              68 74   20/ 10/ 14 1022.0F   5/ 7   5/ 7
DRY TORTUGAS               70      30/ 16/ 18 1021.6R
NW FL BAY                  71      20/  9/ 14 1021.2
SAND KEY                   68      30/ 15/ 19 1020.9F
SOMBRERO KEY               69     360/ 11/ 12 1021.1F
LONG KEY                   69 77   20/  7/  9 1021.4F
MOLASSES REEF              69 77  350/ 12/ 14 1020.3F

$$
FLZ067-068-071>074-168-172>174-282000-
SOUTHEAST FLORIDA

CITY           SKY/WX    TMP DP  RH WIND       PRES   REMARKS
W PALM BEACH   CLOUDY    69  42  37 NW13      30.12F
FT LAUDER-EXEC CLOUDY    69  44  40 NW12G20   30.13F
FT LAUDERDALE  CLOUDY    69  45  41 NW15      30.13S
POMPANO BEACH  CLOUDY    70  43  37 NW16G24   30.13F
PEMBROKE PINES CLOUDY    70  43  37 NW18      30.15F
OPA LOCKA      CLOUDY    70  45  40 N14       30.14F
MIAMI          CLOUDY    71  42  35 NW9G22    30.14S
WEST KENDALL   CLOUDY    72  43  35 NW17      30.14F
HOMESTEAD      CLOUDY    73  45  37 N13       30.14S

STATION/POSITION SKY/WX   TEMP    WIND        PRES    WAVE   SWELL
                          AIR SEA DIR/SP/G            HT/PER HT/PER
                          (F)     (DEG/KT/KT) (MB)    (FT/S) (FT/S)
PORT EVERGLADES            68     310/ 12/ 19 1020.0F



USA.gov is the U.S. government's official web portal to all federal, state and local government web resources and services.